#timestamp,LO_Frequency,Hit,StdDev 
1580151615.4,286047002.3,N
1580151635.2,286047000.9,N
1580151655.1,286046998.3,N
1580151656.0,286046998.3,N
1580151675.8,286047001.0,N
1580151695.6,286047002.6,N
1580151715.5,286047001.7,N
1580151735.3,286047002.5,N
1580151755.2,286047003.7,N
1580151775.9,286047005.8,Y
1580151795.7,286047003.1,P
1580151815.6,286047003.3,N
1580151835.4,286047003.2,N
1580151855.3,286047003.4,Y
1580151875.1,286047004.3,P
1580151876.0,286047004.3,P
1580151895.8,286047004.2,P
1580151915.7,286047004.3,Y
1580151935.5,286046998.9,P
1580151955.4,286047000.7,N
1580151975.2,286047000.4,N
1580151995.0,286046998.1,N
1580151995.9,286046998.1,N
1580152015.8,286047000.8,N
1580152035.6,286046999.4,N
1580152055.4,286046996.6,N
1580152075.3,286046998.8,N
1580152095.1,286046999.3,N
1580152115.9,286046998.1,N
1580152135.7,286046998.3,N
1580152155.5,286046998.3,N
1580152175.4,286046999.5,N
1580152195.2,286046997.6,N
1580152215.0,286046997.2,N
1580152215.9,286046997.2,N
1580152235.8,286046994.9,Y
1580152255.6,286046999.5,P
1580152275.5,286046997.1,P
1580152295.3,286046999.0,N
1580152315.1,286046999.5,N
1580152335.9,286046998.4,N
1580152355.7,286047001.1,N
1580152375.5,286047000.2,N
1580152395.4,286047000.7,N
1580152415.2,286047000.2,N
1580152435.0,286046999.0,N
1580152436.0,286046999.0,N
1580152455.8,286047000.4,N
1580152475.6,286047000.9,N
1580152495.5,286046999.7,N
1580152515.3,286047000.4,N
1580152535.1,286047002.1,N
1580152555.9,286047000.4,N
1580152575.7,286047000.8,N
1580152595.5,286047000.0,N
1580152615.4,286047000.8,N
1580152635.2,286047002.4,N
1580152655.1,286047002.0,N
1580152656.0,286047002.0,N
1580152675.8,286047001.4,N
1580152695.6,286047001.8,N
1580152715.5,286047002.5,N
1580152735.3,286046999.8,N
1580152755.1,286047000.3,N
1580152775.9,286047002.8,N
1580152795.7,286046999.7,N
1580152815.6,286047002.4,N
1580152835.4,286047002.8,N
1580152855.2,286047002.8,N
1580152875.1,286046998.6,N
1580152876.0,286046998.6,N
1580152895.8,286046998.1,N
1580152915.6,286047000.7,N
1580152935.5,286047001.0,N
1580152955.3,286046998.1,N
1580152975.2,286047000.8,N
1580152995.9,286047000.9,N
1580153015.7,286047002.4,N
1580153035.6,286047000.1,N
1580153055.4,286047001.1,N
1580153075.2,286047001.2,N
1580153095.1,286046999.9,N
1580153096.0,286046999.9,N
1580153115.8,286047001.1,N
1580153135.7,286047000.8,N
1580153155.5,286047000.7,N
1580153175.3,286047000.9,N
1580153195.2,286047001.1,N
1580153215.0,286047001.2,N
1580153215.9,286047001.2,N
1580153235.8,286047000.9,N
1580153255.6,286047000.5,N
1580153275.4,286047000.7,N
1580153295.3,286047001.1,N
1580153315.1,286047000.6,N
1580153335.8,286046999.8,N
1580153355.7,286047002.7,N
1580153375.5,286047000.8,N
1580153395.4,286046999.9,N
1580153415.2,286047002.6,N
1580153435.0,286047000.6,N
1580153435.9,286047000.6,N
1580153455.8,286047002.7,Y
1580153475.6,286046998.6,P
1580153495.5,286046999.6,N
1580153515.3,286046999.2,N
1580153535.1,286046999.3,N
1580153555.9,286046998.8,N
1580153575.7,286047001.1,N
1580153595.5,286046998.5,N
1580153615.4,286046998.2,N
1580153635.2,286046999.2,N
1580153655.0,286046999.4,N
1580153656.0,286046999.4,N
1580153675.8,286046998.2,N
1580153695.6,286046999.4,N
1580153715.5,286046998.3,N
1580153735.3,286046999.5,N
1580153755.1,286046999.0,N
1580153775.9,286046999.2,N
1580153795.7,286046998.9,N
1580153815.6,286046998.7,N
1580153835.4,286046998.2,N
1580153855.2,286046998.3,N
1580153875.1,286046998.7,N
1580153876.0,286046998.7,N
1580153895.8,286046997.9,N
1580153915.6,286046995.0,Y
1580153935.5,286046998.8,P
1580153955.3,286046996.9,P
1580153975.2,286046999.0,N
1580153995.9,286046997.4,N
1580154015.7,286046999.5,N
1580154035.6,286046998.2,N
1580154055.4,286046996.8,Y
1580154075.2,286046998.3,P
1580154095.1,286047000.9,P
1580154096.0,286047000.9,N
1580154115.8,286046998.3,N
1580154135.7,286047001.2,N
1580154155.5,286046999.1,N
1580154175.3,286046999.4,N
1580154195.2,286046997.4,N
1580154215.0,286046997.8,N
1580154215.9,286046997.8,N
1580154235.8,286046997.4,N
1580154255.6,286046994.9,Y
1580154275.4,286046999.2,P
1580154295.3,286046997.4,P
1580154315.1,286046997.3,P
1580154335.8,286046995.0,Y
1580154355.7,286046999.1,P
1580154375.5,286046998.1,P
1580154395.4,286046998.6,P
1580154415.2,286046998.6,Y
1580154435.0,286047000.6,P
1580154435.9,286047000.6,N
1580154455.8,286046998.3,N
1580154475.6,286047000.7,N
1580154495.5,286047001.1,N
1580154515.3,286046998.7,N
1580154535.1,286047000.2,N
1580154555.9,286046998.1,N
1580154575.7,286046998.3,N
1580154595.5,286046998.3,N
1580154615.4,286046998.4,N
1580154635.2,286046998.9,N
1580154655.1,286046999.5,N
1580154656.0,286046999.5,N
1580154675.8,286046998.8,N
1580154695.6,286046998.7,N
1580154715.5,286046998.6,N
1580154735.3,286046998.6,N
1580154755.2,286046998.5,N
1580154775.9,286047000.8,N
1580154795.7,286047000.9,N
1580154815.6,286047000.3,N
1580154835.4,286047000.5,N
1580154855.2,286047002.5,N
1580154875.1,286047000.5,N
1580154876.0,286047000.5,N
1580154895.8,286046998.7,N
1580154915.7,286046999.4,N
1580154935.5,286046998.6,N
1580154955.3,286047002.8,N
1580154975.2,286046998.7,N
1580154995.0,286046998.4,N
1580154995.9,286046998.4,N
1580155015.8,286046999.1,N
1580155035.6,286046998.5,N
1580155055.4,286046999.3,N
1580155075.3,286046999.5,N
1580155095.1,286046996.5,N
1580155115.8,286046996.6,N
1580155135.7,286046998.1,N
1580155155.5,286046998.8,N
1580155175.4,286046996.8,N
1580155195.2,286046997.0,N
